F1PPH-1 Weather Reports


Display with metric or nautical units.
time (UTC)temp
F
wind
direction
speed
MPH
gust
MPH
rain 1hr
in
rain 24hr
in
rain mn
in
humidity
%
barometer
mb
20260507120619 86 0.0 0.0 0.00 0.00 0.00 51 1008.8
20260507111822 83 0.0 0.0 0.00 0.00 0.00 54 1009.1
20260507103020 78 0.0 0.0 0.00 0.00 0.00 56 1009.4
20260507094219 73 0.0 0.0 0.00 0.00 0.00 59 1009.6
20260507084220 65 0.0 0.0 0.00 0.00 0.00 62 1009.5
20260507074224 58 0.0 0.0 0.00 0.00 0.00 63 1009.5
20260507060036 52 0.0 0.0 0.00 0.00 0.00 63 1009.3
20260507050031 50 0.0 0.0 0.00 0.00 0.00 63 1008.9
20260507031210 52 0.0 0.0 0.00 0.00 0.00 62 1008.4
20260507021210 53 0.0 0.0 0.00 0.00 0.00 62 1008.4
20260507011211 54 0.0 0.0 0.00 0.00 0.00 62 1008.3
20260507001209 55 0.0 0.0 0.00 0.00 0.00 62 1008.4
20260506231210 57 0.0 0.0 0.00 0.00 0.00 61 1008.2
20260506221209 58 0.0 0.0 0.00 0.00 0.00 61 1008.0
20260506211211 59 0.0 0.0 0.00 0.00 0.00 61 1007.7
20260506201208 60 0.0 0.0 0.00 0.00 0.00 61 1007.1
20260506191208 62 0.0 0.0 0.00 0.00 0.00 60 1006.4
20260506181208 65 0.0 0.0 0.00 0.00 0.00 60 1006.1
20260506161225 66 0.0 0.0 0.00 0.00 0.00 60 1005.6
20260506152408 67 0.0 0.0 0.00 0.00 0.00 59 1005.7
20260506143607 74 0.0 0.0 0.00 0.00 0.00 58 1005.5
20260506134807 73 0.0 0.0 0.00 0.00 0.00 60 1005.5
20260506130009 67 0.0 0.0 0.00 0.00 0.00 61 1005.7